• In Czech Republic
  • List of Countries
  • For 7 days
  • Water Temperature
  • Satellite Maps
  • Weather Map
  • Weather Widgets
  • user-avatar
    Login

    Hourly Weather Midyat

    Today, 26 September, Wednesday

    Time Temperature Precipitation Wind Pressure Humidity
    00:00 +25°C° 0 mm 1 mps 679 mmHg 18%
    01:00 +25°C° 0 mm 1 mps 679 mmHg 19%
    02:00 +24°C° 0 mm 1 mps 679 mmHg 20%
    03:00 +24°C° 0 mm 1 mps 679 mmHg 21%
    04:00 +23°C° 0 mm 1 mps 679 mmHg 21%
    05:00 +23°C° 0 mm 1 mps 679 mmHg 22%
    06:00 +22°C° 0 mm 1 mps 679 mmHg 22%
    07:00 +24°C° 0 mm 1 mps 679 mmHg 20%
    08:00 +27°C° 0 mm 1 mps 680 mmHg 18%
    09:00 +29°C° 0 mm 1 mps 681 mmHg 15%
    10:00 +30°C° 0 mm 1 mps 681 mmHg 14%
    11:00 +31°C° 0 mm 1 mps 681 mmHg 13%
    12:00 +32°C° 0 mm 2 mps 681 mmHg 12%
    13:00 +34°C° 0 mm 2 mps 681 mmHg 11%
    14:00 +34°C° 0 mm 3 mps 680 mmHg 11%
    15:00 +34°C° 0 mm 3 mps 680 mmHg 10%
    16:00 +33°C° 0 mm 3 mps 680 mmHg 11%
    17:00 +31°C° 0 mm 3 mps 680 mmHg 12%
    18:00 +30°C° 0 mm 2 mps 679 mmHg 13%
    19:00 +29°C° 0 mm 2 mps 680 mmHg 14%
    20:00 +28°C° 0 mm 2 mps 680 mmHg 16%
    21:00 +27°C° 0 mm 2 mps 680 mmHg 17%
    22:00 +26°C° 0 mm 1 mps 680 mmHg 18%
    23:00 +26°C° 0 mm 1 mps 680 mmHg 20%

    Tomorrow, 27 September, Thursday

    Time Temperature Precipitation Wind Pressure Humidity
    00:00 +25°C° 0 mm 1 mps 680 mmHg 21%
    01:00 +25°C° 0 mm 1 mps 680 mmHg 22%
    02:00 +24°C° 0 mm 1 mps 680 mmHg 22%
    03:00 +24°C° 0 mm 1 mps 680 mmHg 23%
    04:00 +23°C° 0 mm 1 mps 680 mmHg 23%
    05:00 +23°C° 0 mm 1 mps 680 mmHg 24%
    06:00 +22°C° 0 mm 1 mps 680 mmHg 24%
    07:00 +24°C° 0 mm 1 mps 681 mmHg 21%
    08:00 +26°C° 0 mm 1 mps 682 mmHg 19%
    09:00 +28°C° 0 mm 1 mps 682 mmHg 17%
    10:00 +29°C° 0 mm 1 mps 682 mmHg 15%
    11:00 +31°C° 0 mm 1 mps 683 mmHg 14%
    12:00 +32°C° 0 mm 1 mps 683 mmHg 13%
    13:00 +32°C° 0 mm 1 mps 683 mmHg 12%
    14:00 +34°C° 0 mm 2 mps 683 mmHg 12%
    15:00 +34°C° 0 mm 2 mps 682 mmHg 11%
    16:00 +32°C° 0 mm 2 mps 682 mmHg 12%
    17:00 +31°C° 0 mm 2 mps 682 mmHg 13%
    18:00 +30°C° 0 mm 2 mps 682 mmHg 14%
    19:00 +29°C° 0 mm 2 mps 682 mmHg 15%
    20:00 +28°C° 0 mm 2 mps 682 mmHg 16%
    21:00 +27°C° 0 mm 2 mps 682 mmHg 17%
    22:00 +26°C° 0 mm 2 mps 682 mmHg 18%
    23:00 +26°C° 0 mm 2 mps 682 mmHg 18%

    Day after tomorrow, 28 September, Friday

    Time Temperature Precipitation Wind Pressure Humidity
    00:00 +25°C° 0 mm 2 mps 682 mmHg 19%
    01:00 +25°C° 0 mm 2 mps 682 mmHg 19%
    02:00 +24°C° 0 mm 2 mps 682 mmHg 20%
    03:00 +24°C° 0 mm 2 mps 682 mmHg 20%
    04:00 +23°C° 0 mm 2 mps 682 mmHg 20%
    05:00 +23°C° 0 mm 2 mps 682 mmHg 20%
    06:00 +23°C° 0 mm 2 mps 682 mmHg 20%
    07:00 +24°C° 0 mm 1 mps 682 mmHg 18%
    08:00 +26°C° 0 mm 1 mps 683 mmHg 16%
    09:00 +28°C° 0 mm 1 mps 683 mmHg 14%
    10:00 +29°C° 0 mm 1 mps 683 mmHg 13%
    11:00 +31°C° 0 mm 1 mps 683 mmHg 12%
    12:00 +32°C° 0 mm 1 mps 683 mmHg 11%
    13:00 +32°C° 0 mm 2 mps 683 mmHg 11%
    14:00 +34°C° 0 mm 2 mps 683 mmHg 10%
    15:00 +34°C° 0 mm 2 mps 683 mmHg 10%
    16:00 +32°C° 0 mm 2 mps 682 mmHg 11%
    17:00 +31°C° 0 mm 2 mps 682 mmHg 12%
    18:00 +30°C° 0 mm 2 mps 682 mmHg 13%
    19:00 +29°C° 0 mm 2 mps 682 mmHg 14%
    20:00 +28°C° 0 mm 2 mps 682 mmHg 14%
    21:00 +27°C° 0 mm 2 mps 682 mmHg 15%
    22:00 +26°C° 0 mm 2 mps 682 mmHg 16%
    23:00 +26°C° 0 mm 1 mps 682 mmHg 17%

    29 September, Saturday

    Time Temperature Precipitation Wind Pressure Humidity
    00:00 +25°C° 0 mm 1 mps 682 mmHg 18%
    01:00 +24°C° 0 mm 1 mps 681 mmHg 18%
    02:00 +24°C° 0 mm 1 mps 681 mmHg 19%
    03:00 +23°C° 0 mm 1 mps 681 mmHg 20%
    04:00 +23°C° 0 mm 1 mps 681 mmHg 20%
    05:00 +22°C° 0 mm 1 mps 681 mmHg 21%
    06:00 +22°C° 0 mm 1 mps 681 mmHg 21%
    07:00 +24°C° 0 mm 1 mps 681 mmHg 19%
    08:00 +26°C° 0 mm 1 mps 682 mmHg 16%
    09:00 +28°C° 0 mm 1 mps 683 mmHg 14%
    10:00 +29°C° 0 mm 1 mps 683 mmHg 14%
    11:00 +31°C° 0 mm 2 mps 683 mmHg 13%
    12:00 +32°C° 0 mm 2 mps 683 mmHg 13%
    13:00 +33°C° 0 mm 3 mps 682 mmHg 13%
    14:00 +34°C° 0 mm 3 mps 682 mmHg 13%
    15:00 +34°C° 0 mm 4 mps 682 mmHg 12%
    16:00 +33°C° 0 mm 3 mps 682 mmHg 14%
    17:00 +31°C° 0 mm 3 mps 681 mmHg 15%
    18:00 +30°C° 0 mm 3 mps 681 mmHg 16%
    19:00 +29°C° 0 mm 3 mps 681 mmHg 17%
    20:00 +28°C° 0 mm 2 mps 682 mmHg 18%
    21:00 +27°C° 0 mm 2 mps 682 mmHg 18%
    22:00 +26°C° 0 mm 2 mps 682 mmHg 19%
    23:00 +26°C° 0 mm 2 mps 682 mmHg 20%

    30 September, Sunday

    Time Temperature Precipitation Wind Pressure Humidity
    00:00 +25°C° 0 mm 1 mps 681 mmHg 21%
    01:00 +24°C° 0 mm 1 mps 681 mmHg 23%
    02:00 +24°C° 0 mm 1 mps 681 mmHg 25%
    03:00 +23°C° 0 mm 1 mps 681 mmHg 27%
    04:00 +23°C° 0 mm 1 mps 681 mmHg 28%
    05:00 +22°C° 0 mm 1 mps 681 mmHg 29%
    06:00 +22°C° 0 mm 1 mps 681 mmHg 30%
    07:00 +24°C° 0 mm 1 mps 682 mmHg 28%
    08:00 +26°C° 0 mm 1 mps 682 mmHg 25%
    09:00 +28°C° 0 mm 1 mps 683 mmHg 23%
    10:00 +29°C° 0 mm 2 mps 683 mmHg 21%
    11:00 +30°C° 0 mm 3 mps 683 mmHg 19%
    12:00 +33°C° 0 mm 3 mps 683 mmHg 18%
    13:00 +33°C° 0 mm 4 mps 683 mmHg 18%
    14:00 +34°C° 0 mm 5 mps 683 mmHg 17%
    15:00 +35°C° 0 mm 5 mps 682 mmHg 17%
    16:00 +34°C° 0 mm 5 mps 682 mmHg 19%
    17:00 +33°C° 0 mm 4 mps 682 mmHg 21%
    18:00 +31°C° 0 mm 3 mps 682 mmHg 22%
    19:00 +30°C° 0 mm 3 mps 682 mmHg 24%
    20:00 +29°C° 0 mm 2 mps 683 mmHg 25%
    21:00 +28°C° 0 mm 2 mps 683 mmHg 27%
    22:00 +27°C° 0 mm 1 mps 682 mmHg 28%
    23:00 +26°C° 0 mm 1 mps 682 mmHg 30%

    1 October, Monday

    Time Temperature Precipitation Wind Pressure Humidity
    00:00 +26°C° 0 mm 1 mps 682 mmHg 31%
    01:00 +25°C° 0 mm 1 mps 682 mmHg 31%
    02:00 +25°C° 0 mm 1 mps 682 mmHg 32%
    03:00 +25°C° 0 mm 1 mps 682 mmHg 32%
    04:00 +24°C° 0 mm 1 mps 682 mmHg 32%
    05:00 +24°C° 0 mm 2 mps 682 mmHg 32%
    06:00 +24°C° 0 mm 2 mps 682 mmHg 33%
    07:00 +26°C° 0 mm 2 mps 682 mmHg 30%
    08:00 +27°C° 0 mm 2 mps 682 mmHg 27%
    09:00 +29°C° 0 mm 2 mps 683 mmHg 25%
    10:00 +30°C° 0 mm 2 mps 683 mmHg 22%
    11:00 +32°C° 0 mm 2 mps 683 mmHg 20%
    12:00 +34°C° 0 mm 3 mps 683 mmHg 17%
    13:00 +35°C° 0 mm 3 mps 683 mmHg 17%
    14:00 +35°C° 0 mm 3 mps 682 mmHg 16%
    15:00 +35°C° 0 mm 3 mps 682 mmHg 15%
    16:00 +34°C° 0 mm 4 mps 682 mmHg 17%
    17:00 +33°C° 0 mm 4 mps 682 mmHg 18%
    18:00 +32°C° 0 mm 4 mps 682 mmHg 20%
    19:00 +29°C° 0.1 mm 4 mps 682 mmHg 25%
    20:00 +28°C° 0.1 mm 4 mps 682 mmHg 30%
    21:00 +27°C° 0.1 mm 4 mps 682 mmHg 35%
    22:00 +26°C° 0 mm 3 mps 682 mmHg 37%
    23:00 +25°C° 0 mm 3 mps 682 mmHg 40%
    Show more